This is the latest recevied weather packets stored in our database for station/object SP1BMW-13. If no packets are shown the sender has not sent any weather packets the latest 10 day(s).
| Time | Temp. | Humidity | Pressure | Rain* | Wind** | Luminosity | Snow |
|---|---|---|---|---|---|---|---|
| 1787984420 | 18.33° C | 78% | 1009.3 hPa | 0 mm | 0 m/s | 154 W/m² | - |
| 1787984363 | 18.33° C | 78% | 1009.2 hPa | 0 mm | 0 m/s | 105 W/m² | - |
| 1787984300 | 18.33° C | 79% | 1009.1 hPa | 0 mm | 0 m/s | 128 W/m² | - |
| 1787984240 | 18.33° C | 79% | 1009.2 hPa | 0 mm | 0 m/s | 102 W/m² | - |
| 1787984180 | 18.33° C | 79% | 1009.1 hPa | 0 mm | 0.45 m/s, 165° | 100 W/m² | - |
| 1787984120 | 18.33° C | 79% | 1009.2 hPa | 0 mm | 0.45 m/s, 57° | 93 W/m² | - |
| 1787984060 | 18.33° C | 79% | 1009.1 hPa | 0 mm | 0 m/s | 68 W/m² | - |
| 1787984000 | 18.33° C | 79% | 1009.3 hPa | 0 mm | 0 m/s | 59 W/m² | - |
| 1787983940 | 18.33° C | 79% | 1009.1 hPa | 0 mm | 0.45 m/s, 292° | 56 W/m² | - |
| 1787983880 | 18.33° C | 78% | 1009.2 hPa | 0 mm | 0 m/s | 52 W/m² | - |
| 1787983820 | 18.33° C | 79% | 1009.2 hPa | 0 mm | 0 m/s | 50 W/m² | - |
| 1787983760 | 18.33° C | 78% | 1009.2 hPa | 0 mm | 0 m/s | 49 W/m² | - |
| 1787983700 | 18.33° C | 78% | 1009 hPa | 0 mm | 0 m/s | 48 W/m² | - |
| 1787983640 | 18.33° C | 78% | 1009.1 hPa | 0 mm | 0 m/s | 47 W/m² | - |
| 1787983580 | 18.33° C | 78% | 1009.1 hPa | 0 mm | 0.89 m/s, 182° | 47 W/m² | - |
| 1787983521 | 18.33° C | 78% | 1009.2 hPa | 0 mm | 0.45 m/s, 254° | 48 W/m² | - |
| 1787983460 | 18.33° C | 78% | 1009 hPa | 0 mm | 0.45 m/s, 156° | 48 W/m² | - |
| 1787983401 | 18.33° C | 77% | 1009.1 hPa | 0 mm | 0.45 m/s, 224° | 50 W/m² | - |
| 1787983341 | 18.33° C | 78% | 1009.1 hPa | 0 mm | 0.45 m/s, 241° | 51 W/m² | - |
| 1787983281 | 18.33° C | 78% | 1009.1 hPa | 0 mm | 0 m/s | 53 W/m² | - |
| 1787983220 | 18.33° C | 78% | 1009.1 hPa | 0 mm | 0 m/s | 55 W/m² | - |
| 1787983161 | 18.33° C | 77% | 1009 hPa | 0 mm | 0.45 m/s, 204° | 58 W/m² | - |
| 1787983101 | 18.33° C | 77% | 1009.1 hPa | 0 mm | 0.89 m/s, 310° | 62 W/m² | - |
| 1787983040 | 18.33° C | 77% | 1009.2 hPa | 0 mm | 0.45 m/s, 96° | 65 W/m² | - |
| 1787982981 | 18.33° C | 78% | 1009 hPa | 0 mm | 0.45 m/s, 237° | 68 W/m² | - |
* Rain latest hour (hover to see other rain measurements)
** Current wind speed in m/s (hover to see current wind gust speed)